Plymouth, MA

1:31 PM EDT on June 25, 2017 (GMT -0400)
Plymouth Municipal

Weather History for KPYM - February, 2013

Change the Weather History Date:

Monday, February 18, 2013

  Actual Average Record
Temperature  
Mean Temperature 22 °F -  
Max Temperature 30 °F 37 °F 59 °F (1981)
Min Temperature 15 °F 18 °F -6 °F (1979)
Degree Days  
Heating Degree Days 42    
Moisture  
Dew Point 1 °F    
Average Humidity 39    
Maximum Humidity 50    
Minimum Humidity 25    
Precipitation  
Precipitation 0.00 in - - ()
Sea Level Pressure  
Sea Level Pressure 29.96 in    
Wind  
Wind Speed 18 mph (West)    
Max Wind Speed 24 mph    
Max Gust Speed 34 mph    
Visibility 10 miles    
Events      
Averages and records for this station are not official NWS values.
T = Trace of Precipitation, MM = Missing Value Source: NWS Daily Summary

Daily Weather History Graph

Daily Weather History Graph

Search for Another Location

Airport or City:

Trip Planner

Search our weather history database for the weather conditions in past years. The results will help you decide how hot, cold, wet, or windy it might be!

Date:

Astronomy

Feb. 18, 2013 Rise Set
Actual Time 6:34 AM EST 5:20 PM EST
Civil Twilight 6:05 AM EST 5:48 PM EST
Nautical Twilight 5:33 AM EST 6:21 PM EST
Astronomical Twilight 5:01 AM EST 6:53 PM EST
Moon 11:00 AM EST (2/18) 1:13 AM EST (2/18)
Length of Visible Light 11h 42m
Length of Day
10h 45m
First Quarter, 58% of the Moon is Illuminated
Feb 18
First Quarter
Feb 25
Full
Mar 4
Last Quarter
Mar 11
New
Mar 19
First Quarter

Hourly Weather History & Observations

Time (EST) Temp. Windchill Dew Point Humidity Pressure Visibility Wind Dir Wind Speed Gust Speed Precip Events Conditions
12:52 AM 17.1 °F 2.0 °F 1.0 °F 50% 29.68 in 6.0 mi WNW 16.1 mph 34.5 mph N/A   Haze
1:52 AM 17.1 °F -0.3 °F -0.0 °F 47% 29.70 in 9.0 mi WNW 21.9 mph 31.1 mph N/A   Scattered Clouds
2:52 AM 16.0 °F -1.3 °F -0.0 °F 49% 29.72 in 10.0 mi WNW 20.7 mph 32.2 mph N/A   Partly Cloudy
3:52 AM 16.0 °F -0.4 °F -0.9 °F 47% 29.76 in 10.0 mi WNW 18.4 mph 32.2 mph N/A   Clear
4:52 AM 16.0 °F -1.3 °F -0.9 °F 47% 29.79 in 10.0 mi WNW 20.7 mph 27.6 mph N/A   Clear
5:52 AM 16.0 °F -0.9 °F -0.9 °F 47% 29.83 in 10.0 mi WNW 19.6 mph 29.9 mph N/A   Clear
6:52 AM 15.1 °F -1.1 °F -0.9 °F 49% 29.87 in 10.0 mi WNW 17.3 mph 28.8 mph N/A   Clear
7:52 AM 17.1 °F 0.1 °F -0.0 °F 47% 29.90 in 7.0 mi WNW 20.7 mph 33.4 mph N/A   Clear
9:52 AM 21.9 °F 5.5 °F 3.0 °F 44% 29.95 in 9.0 mi WNW 24.2 mph 34.5 mph N/A   Clear
10:52 AM 25.0 °F 10.6 °F 1.9 °F 37% 29.96 in 10.0 mi WNW 20.7 mph 34.5 mph N/A   Clear
11:52 AM 28.0 °F 17.0 °F 3.9 °F 36% 29.97 in 10.0 mi West 13.8 mph 33.4 mph N/A   Clear
12:52 PM 28.9 °F 15.1 °F 1.9 °F 32% 29.98 in 10.0 mi WNW 23.0 mph 32.2 mph N/A   Clear
1:52 PM 30.0 °F 18.3 °F 1.9 °F 30% 29.99 in 10.0 mi West 17.3 mph 31.1 mph N/A   Clear
2:52 PM 30.0 °F 17.9 °F 1.9 °F 30% 30.01 in 10.0 mi West 18.4 mph 29.9 mph N/A   Clear
3:52 PM 28.9 °F 16.5 °F 1.0 °F 30% 30.03 in 10.0 mi West 18.4 mph 26.5 mph N/A   Clear
4:52 PM 30.0 °F 17.5 °F -2.0 °F 25% 30.06 in 10.0 mi West 19.6 mph 27.6 mph N/A   Clear
5:52 PM 27.0 °F 16.7 °F -0.0 °F 31% 30.09 in 10.0 mi West 11.5 mph - N/A   Clear
6:52 PM 27.0 °F 17.3 °F -0.0 °F 31% 30.12 in 10.0 mi WSW 10.4 mph - N/A   Clear
8:52 PM 24.1 °F 12.5 °F 1.0 °F 37% 30.14 in 10.0 mi WSW 12.7 mph - N/A   Clear
9:52 PM 25.0 °F 13.6 °F 1.0 °F 36% 30.14 in 10.0 mi West 12.7 mph - N/A   Clear
10:52 PM 24.1 °F 16.0 °F 1.0 °F 37% 30.17 in 10.0 mi WSW 6.9 mph - N/A   Clear
11:52 PM 24.1 °F 16.0 °F 1.0 °F 37% 30.17 in 10.0 mi WSW 6.9 mph - N/A   Clear